G6RZA-13 Weather Reports


time (UTC)temp
C
wind
direction
speed
KPH
gust
KPH
rain 1hr
cm
rain 24hr
cm
rain mn
cm
humidity
%
barometer
mb
20260505170024 16 245 4.8 12.9 0.00 0.00 0.00 51 1012.0
20260505165025 16 90 1.6 9.7 0.00 0.00 0.00 50 1011.9
20260505164021 16 118 6.4 22.5 0.00 0.00 0.00 49 1011.9
20260505163041 16 92 4.8 14.5 0.00 0.00 0.00 49 1011.9
20260505162025 17 113 3.2 9.7 0.00 0.00 0.00 47 1011.9
20260505161021 17 250 6.4 16.1 0.00 0.00 0.00 48 1011.8
20260505153026 17 354 6.4 12.9 0.00 0.00 0.00 48 1011.9
20260505152021 17 312 9.7 20.9 0.00 0.00 0.00 48 1011.9
20260505151022 17 218 4.8 14.5 0.00 0.00 0.00 49 1011.9
20260505124017 16 346 3.2 8.0 0.00 0.00 0.00 56 1012.4
20260505123017 16 315 6.4 22.5 0.00 0.00 0.00 58 1012.5
20260505122017 16 222 6.4 16.1 0.00 0.00 0.00 58 1012.5
20260505121024 16 348 9.7 24.1 0.00 0.00 0.00 57 1012.5
20260505120023 16 316 6.4 14.5 0.00 0.00 0.00 57 1012.6
20260505115129 16 37 6.4 22.5 0.00 0.00 0.00 59 1012.7
20260505114017 15 11 8.0 22.5 0.00 0.00 0.00 61 1012.8
20260505113038 15 163 6.4 11.3 0.00 0.00 0.00 60 1012.8
20260505112018 15 313 6.4 14.5 0.00 0.00 0.00 61 1012.9
20260505111018 15 49 6.4 14.5 0.00 0.00 0.00 60 1013.0
20260505102048 15 144 6.4 11.3 0.00 0.00 0.00 62 1013.0
20260505101029 15 340 3.2 8.0 0.00 0.00 0.00 65 1013.0
20260505100059 15 348 9.7 27.4 0.00 0.00 0.00 65 1013.0
20260505095029 14 70 4.8 9.7 0.00 0.00 0.00 68 1013.0
20260505094049 13 55 3.2 9.7 0.00 0.00 0.00 69 1013.0
20260505093029 14 248 4.8 8.0 0.00 0.00 0.00 71 1013.0
20260505092029 14 342 4.8 14.5 0.00 0.00 0.00 72 1013.0
20260505091019 14 18 8.0 16.1 0.00 0.00 0.00 74 1013.1
20260505090019 13 346 3.2 8.0 0.00 0.00 0.00 75 1013.1
20260505085019 13 336 9.7 24.1 0.00 0.00 0.00 76 1013.1
20260505084019 13 348 11.3 20.9 0.00 0.00 0.00 78 1013.1
20260505083020 13 342 9.7 20.9 0.00 0.00 0.00 80 1013.0
20260505082020 12 341 11.3 22.5 0.00 0.00 0.00 82 1013.0
20260505081020 12 334 9.7 24.1 0.00 0.00 0.00 82 1013.0
20260505080017 12 51 8.0 11.3 0.00 0.00 0.00 84 1012.9
20260505075020 12 337 8.0 14.5 0.00 0.00 0.00 85 1012.9
20260505074100 11 359 8.0 19.3 0.00 0.00 0.00 87 1012.9
20260505073020 11 351 9.7 19.3 0.00 0.00 0.00 88 1012.8
20260505072021 11 344 8.0 22.5 0.00 0.00 0.00 89 1013.0
20260505071020 11 358 8.0 22.5 0.00 0.00 0.00 90 1013.1
20260505070100 11 350 6.4 14.5 0.00 0.00 0.00 91 1013.1
20260505065021 11 346 4.8 12.9 0.00 0.00 0.00 92 1013.2
20260505064021 10 360 9.7 17.7 0.00 0.00 0.00 92 1013.1
20260505063021 10 353 8.0 17.7 0.00 0.00 0.00 93 1013.0
20260505062041 10 340 8.0 17.7 0.00 0.00 0.00 93 1013.0
20260505061021 10 350 8.0 17.7 0.00 0.00 0.00 93 1013.1
20260505060018 10 329 4.8 14.5 0.00 0.00 0.00 93 1013.1
20260505055021 10 343 4.8 17.7 0.00 0.00 0.00 93 1013.0
20260505054021 10 355 6.4 12.9 0.00 0.00 0.00 93 1012.9
20260505053018 10 12 6.4 11.3 0.00 0.00 0.00 94 1012.9
20260505052042 10 351 8.0 14.5 0.00 0.00 0.00 94 1013.1
20260505051021 10 14 4.8 9.7 0.00 0.00 0.00 94 1013.0
20260505041019 10 344 4.8 9.7 0.00 0.00 0.00 94 1013.4
20260505040040 10 11 4.8 11.3 0.00 0.00 0.00 94 1013.6
20260505035022 11 17 4.8 14.5 0.00 0.00 0.00 94 1013.7
20260505034019 11 348 4.8 8.0 0.00 0.00 0.00 94 1013.8
20260505033020 11 21 3.2 9.7 0.00 0.00 0.00 94 1013.8
20260505032020 11 16 1.6 6.4 0.00 0.00 0.00 94 1013.9
20260505031020 11 94 1.6 6.4 0.00 0.00 0.00 94 1013.9
20260505030020 11 7 1.6 6.4 0.00 0.00 0.00 94 1014.0
20260505025020 11 16 3.2 6.4 0.00 0.00 0.00 94 1014.1
20260505024020 11 52 1.6 6.4 0.00 0.00 0.00 94 1014.1
20260505023020 11 51 0.0 3.2 0.00 0.00 0.00 95 1014.1
20260505022020 11 245 0.0 1.6 0.00 0.00 0.00 95 1014.1
20260505021021 11 9 3.2 8.0 0.00 0.00 0.00 95 1014.2
20260505020021 11 0.0 0.0 0.00 0.00 0.00 95 1014.2
20260505015021 11 6 3.2 6.4 0.00 0.00 0.00 95 1014.2
20260505014021 11 15 3.2 6.4 0.00 0.00 0.00 95 1014.3
20260505013021 11 67 1.6 3.2 0.00 0.00 0.00 95 1014.3
20260505012021 11 58 1.6 6.4 0.00 0.00 0.00 95 1014.4
20260505011021 11 79 3.2 6.4 0.00 0.00 0.00 95 1014.6
20260505010022 11 343 1.6 3.2 0.00 0.00 0.00 95 1014.4
20260505005022 11 89 3.2 8.0 0.00 0.00 0.00 95 1014.5
20260505004022 11 15 3.2 6.4 0.00 0.00 0.00 95 1014.6
20260505003022 11 358 1.6 6.4 0.00 0.00 0.00 95 1014.8
20260505002022 11 25 3.2 8.0 0.00 0.00 0.00 96 1015.1
20260505001023 11 55 1.6 3.2 0.00 0.00 0.00 96 1015.0
20260505000022 11 9 3.2 9.7 0.00 0.00 0.00 96 1014.9
20260504235023 11 80 4.8 9.7 0.00 0.00 0.00 96 1015.0
20260504234023 11 60 3.2 8.0 0.00 0.00 0.00 96 1015.0
20260504233020 11 76 3.2 9.7 0.00 0.00 0.00 96 1014.9
20260504232037 11 98 8.0 16.1 0.00 0.00 0.00 96 1014.9
20260504231018 11 90 6.4 16.1 0.00 0.00 0.00 96 1015.0
20260504230017 11 92 4.8 12.9 0.00 0.00 0.00 97 1014.8
20260504225018 11 74 3.2 11.3 0.00 0.00 0.00 97 1014.9
20260504224038 11 48 1.6 8.0 0.00 0.00 0.00 97 1014.9
20260504223038 11 73 3.2 11.3 0.00 0.00 0.00 97 1015.1
20260504222018 12 96 3.2 17.7 0.00 0.00 0.00 98 1015.2
20260504221018 12 21 1.6 8.0 0.00 0.00 0.00 98 1015.3
20260504220018 12 85 3.2 11.3 0.00 0.00 0.00 98 1015.3
20260504215018 12 85 1.6 4.8 0.00 0.00 0.00 98 1015.3
20260504214019 12 75 1.6 6.4 0.00 0.00 0.00 98 1015.3
20260504213019 12 31 1.6 8.0 0.00 0.00 0.00 98 1015.3
20260504212019 12 22 6.4 9.7 0.00 0.00 0.00 98 1015.3
20260504211016 12 18 6.4 9.7 0.00 0.00 0.00 98 1015.2
20260504210039 12 0.0 0.0 0.00 0.00 0.00 98 1015.2
20260504205019 12 53 0.0 3.2 0.00 0.00 0.00 97 1015.3
20260504204019 12 30 1.6 6.4 0.00 0.00 0.00 97 1015.2
20260504203039 12 20 1.6 9.7 0.00 0.00 0.00 97 1015.0
20260504202036 12 21 6.4 9.7 0.00 0.00 0.00 97 1015.0
20260504201017 12 30 1.6 6.4 0.00 0.00 0.00 97 1015.0
20260504200020 12 39 1.6 6.4 0.00 0.00 0.00 97 1015.0
20260504195020 12 34 1.6 6.4 0.00 0.00 0.00 97 1015.0
20260504194017 12 39 1.6 8.0 0.00 0.00 0.00 97 1014.9
20260504193017 12 87 0.0 3.2 0.00 0.00 0.00 96 1014.7
20260504192037 12 48 0.0 6.4 0.00 0.00 0.00 96 1014.6
20260504191017 12 36 1.6 6.4 0.00 0.00 0.00 96 1014.7
20260504190018 12 59 0.0 4.8 0.00 0.00 0.00 96 1014.6
20260504185018 12 99 0.0 6.4 0.00 0.00 0.00 95 1014.6
20260504184018 12 68 0.0 1.6 0.00 0.00 0.00 95 1014.5
20260504183018 12 36 0.0 4.8 0.00 0.00 0.00 95 1014.6
20260504182018 12 42 1.6 6.4 0.00 0.00 0.00 95 1014.7
20260504181018 12 56 0.0 1.6 0.00 0.00 0.00 95 1014.6
20260504180018 12 54 0.0 1.6 0.00 0.00 0.00 95 1014.5
20260504175018 12 26 0.0 4.8 0.00 0.00 0.00 94 1014.7
20260504174019 12 46 0.0 6.4 0.00 0.00 0.00 94 1014.6
20260504173018 12 83 3.2 6.4 0.00 0.00 0.00 94 1014.7
20260504172019 12 70 0.0 4.8 0.00 0.00 0.00 94 1014.6
20260504171019 12 1 1.6 6.4 0.00 0.00 0.00 94 1014.7